This is the latest recevied weather packets stored in our database for station/object WA6OOO. If no packets are shown the sender has not sent any weather packets the latest 10 day(s).
| Time | Temp. | Humidity | Pressure | Rain* | Wind** | Luminosity | Snow |
|---|---|---|---|---|---|---|---|
| 1788291912 | 23.33° C | 65% | 1019.3 hPa | 0 mm | - | 712 W/m² | - |
| 1788291608 | 22.78° C | 66% | 1019.1 hPa | 0 mm | - | 711 W/m² | - |
| 1788291307 | 22.78° C | 67% | 1019.4 hPa | 0 mm | - | 709 W/m² | - |
| 1788291003 | 22.78° C | 66% | 1019.2 hPa | 0 mm | - | 707 W/m² | - |
| 1788290697 | 23.33° C | 64% | 1019.5 hPa | 0 mm | - | 706 W/m² | - |
| 1788290394 | 22.78° C | 65% | 1019.3 hPa | 0 mm | - | 705 W/m² | - |
| 1788290089 | 23.33° C | 64% | 1019.4 hPa | 0 mm | - | 702 W/m² | - |
| 1788289785 | 22.78° C | 67% | 1019.6 hPa | 0 mm | - | 699 W/m² | - |
| 1788289480 | 22.78° C | 66% | 1019.5 hPa | 0 mm | - | 697 W/m² | - |
| 1788289177 | 23.33° C | 67% | 1019.3 hPa | 0 mm | - | 690 W/m² | - |
| 1788288872 | 22.78° C | 65% | 1019.4 hPa | 0 mm | - | 685 W/m² | - |
| 1788288572 | 22.78° C | 67% | 1019.4 hPa | 0 mm | - | 682 W/m² | - |
| 1788288267 | 23.33° C | 65% | 1019.6 hPa | 0 mm | - | 675 W/m² | - |
| 1788287962 | 22.78° C | 67% | 1019.4 hPa | 0 mm | - | 669 W/m² | - |
| 1788287662 | 23.89° C | 65% | 1019.5 hPa | 0 mm | - | 662 W/m² | - |
| 1788287358 | 22.78° C | 67% | 1019.4 hPa | 0 mm | - | 654 W/m² | - |
| 1788287053 | 23.33° C | 65% | 1019.5 hPa | 0 mm | - | 650 W/m² | - |
| 1788286748 | 22.78° C | 67% | 1019.4 hPa | 0 mm | - | 635 W/m² | - |
| 1788286443 | 23.33° C | 66% | 1019.5 hPa | 0 mm | - | 629 W/m² | - |
| 1788286141 | 23.33° C | 64% | 1019.4 hPa | 0 mm | - | 617 W/m² | - |
| 1788285841 | 23.33° C | 64% | 1019.4 hPa | 0 mm | - | 610 W/m² | - |
| 1788285539 | 23.89° C | 63% | 1019.5 hPa | 0 mm | - | 598 W/m² | - |
| 1788285234 | 23.89° C | 63% | 1019.3 hPa | 0 mm | - | 592 W/m² | - |
| 1788284930 | 23.33° C | 63% | 1019.4 hPa | 0 mm | - | 583 W/m² | - |
| 1788284625 | 22.78° C | 65% | 1019.2 hPa | 0 mm | - | 574 W/m² | - |
* Rain latest hour (hover to see other rain measurements)
** Current wind speed in m/s (hover to see current wind gust speed)